GW2240 Weather Reports


time (UTC)temp
F
wind
direction
speed
knots
gust
knots
rain 1hr
in
rain 24hr
in
rain mn
in
humidity
%
barometer
mb
20260505171559 77 154 0.0 0.0 0.00 0.00 0.00 88 1009.6
20260505170058 77 154 0.0 0.0 0.00 0.00 0.00 88 1009.4
20260505164559 77 154 0.0 0.9 0.00 0.00 0.00 89 1009.6
20260505163054 76 190 0.0 0.9 0.00 0.00 0.00 89 1009.7
20260505161552 76 196 0.0 0.0 0.00 0.00 0.00 90 1009.6
20260505153053 76 154 0.0 0.0 0.00 0.00 0.00 89 1009.3
20260505151550 76 173 0.0 0.0 0.00 0.00 0.00 89 1009.2
20260505124515 72 173 0.0 0.9 0.00 0.00 0.00 92 1008.4
20260505123011 72 151 0.0 0.0 0.00 0.00 0.00 92 1008.5
20260505121508 71 151 0.0 0.0 0.00 0.00 0.00 92 1008.7
20260505120013 71 151 0.0 0.9 0.00 0.00 0.00 92 1008.5
20260505114507 71 159 0.0 1.7 0.00 0.00 0.00 92 1008.1
20260505113006 71 159 0.0 0.0 0.00 0.00 0.00 92 1008.5
20260505111510 71 159 0.0 0.0 0.00 0.00 0.00 91 1008.4
20260505101506 71 173 0.0 0.0 0.00 0.00 0.00 91 1008.4
20260505100002 71 151 0.0 1.7 0.00 0.00 0.00 91 1008.5
20260505094502 70 152 0.0 0.0 0.00 0.00 0.00 91 1008.5
20260505093002 70 152 0.0 0.0 0.00 0.00 0.00 91 1008.5
20260505091616 70 152 0.0 0.0 0.00 0.00 0.00 91 1008.9
20260505084606 70 152 0.0 0.0 0.00 0.00 0.00 90 1008.9
20260505083106 70 152 0.0 0.0 0.00 0.00 0.00 89 1008.9
20260505081554 70 152 0.0 0.0 0.00 0.00 0.00 89 1009.2
20260505080052 70 152 0.0 0.0 0.00 0.00 0.00 89 1009.2
20260505074552 70 152 0.0 0.0 0.00 0.00 0.00 89 1009.4
20260505073054 70 152 0.0 0.0 0.00 0.00 0.00 88 1009.5
20260505071548 70 152 0.0 0.0 0.00 0.00 0.00 87 1009.8
20260505070100 70 152 0.0 0.0 0.00 0.00 0.00 87 1009.9
20260505064553 70 152 0.0 0.9 0.00 0.00 0.00 86 1010.1
20260505063044 70 140 0.0 0.9 0.00 0.00 0.00 87 1010.0
20260505061608 70 140 0.0 0.0 0.00 0.00 0.00 86 1010.1
20260505060048 70 140 0.0 1.7 0.00 0.00 0.00 86 1010.3
20260505054546 70 140 0.0 0.0 0.00 0.00 0.00 85 1010.2
20260505053038 70 140 0.0 0.0 0.00 0.00 0.00 85 1010.5
20260505051536 71 140 0.0 0.0 0.00 0.00 0.00 84 1010.8
20260505041531 72 186 0.0 2.6 0.00 0.00 0.00 81 1010.6
20260505040040 72 164 0.0 1.7 0.00 0.00 0.00 81 1010.9
20260505034538 72 173 0.0 1.7 0.00 0.00 0.00 81 1010.8
20260505033030 73 150 0.0 1.7 0.00 0.00 0.00 80 1010.8
20260505031530 73 150 0.0 1.7 0.00 0.00 0.00 79 1011.0
20260505030029 74 145 0.0 1.7 0.00 0.00 0.00 78 1010.9
20260505024529 74 159 0.0 0.9 0.00 0.00 0.00 78 1010.7
20260505023028 74 152 0.0 1.7 0.00 0.00 0.00 77 1010.7
20260505021528 74 151 0.0 1.7 0.00 0.00 0.00 77 1010.7
20260505020036 74 133 0.0 0.9 0.00 0.00 0.00 77 1010.5
20260505014527 74 121 0.0 0.0 0.00 0.00 0.00 77 1010.4
20260505013027 74 154 0.0 0.0 0.00 0.00 0.00 77 1010.2
20260505011528 74 148 0.0 0.9 0.00 0.00 0.00 76 1010.2
20260505010027 75 148 0.0 0.0 0.00 0.00 0.00 75 1010.3
20260505004525 76 148 0.0 0.0 0.00 0.00 0.00 73 1010.3
20260505003026 76 148 0.0 1.7 0.00 0.00 0.00 73 1010.1
20260505001524 77 111 0.0 0.0 0.00 0.00 0.00 72 1010.1
20260505000039 77 144 0.0 1.7 0.00 0.00 0.00 71 1010.3
20260504234525 77 173 0.0 0.9 0.00 0.00 0.00 72 1010.5
20260504233022 77 191 0.0 1.7 0.00 0.00 0.00 71 1010.3
20260504231520 78 164 0.0 1.7 0.00 0.00 0.00 70 1010.5
20260504230018 79 173 0.0 1.7 0.00 0.00 0.00 67 1010.8
20260504224518 79 148 0.0 1.7 0.00 0.00 0.00 68 1010.7
20260504223017 79 159 0.0 1.7 0.00 0.00 0.00 68 1010.9
20260504221525 79 144 0.0 1.7 0.00 0.00 0.00 67 1011.0
20260504220030 79 173 0.0 0.9 0.00 0.00 0.00 68 1011.2
20260504214513 79 209 0.0 0.0 0.00 0.00 0.00 66 1011.3
20260504213015 80 164 0.0 0.9 0.00 0.00 0.00 66 1011.4
20260504211511 80 173 0.0 1.7 0.00 0.00 0.00 67 1011.8
20260504210010 79 179 0.0 0.0 0.00 0.00 0.00 66 1011.9
20260504204508 79 140 0.0 1.7 0.00 0.00 0.00 65 1012.2
20260504203007 81 159 0.0 0.0 0.00 0.00 0.00 65 1012.2
20260504201504 80 144 0.0 1.7 0.00 0.00 0.00 64 1012.7
20260504200005 80 189 0.0 0.0 0.00 0.00 0.00 64 1012.9
20260504194502 81 52 0.0 1.7 0.00 0.00 0.00 63 1013.1
20260504193002 81 173 0.0 1.7 0.00 0.00 0.00 61 1013.2
20260504191600 86 179 0.0 1.7 0.00 0.00 0.00 53 1013.4
20260504190108 80 186 0.0 1.7 0.00 0.00 0.00 62 1013.9
20260504184556 81 198 0.0 1.7 0.00 0.00 0.00 60 1013.9
20260504183100 80 182 0.0 1.7 0.00 0.00 0.00 61 1014.0
20260504181553 81 183 0.0 1.7 0.00 0.00 0.00 62 1014.1
20260504180130 80 202 0.0 1.7 0.00 0.00 0.00 62 1014.2
20260504174547 80 204 0.0 0.9 0.00 0.00 0.00 62 1014.4
20260504173047 79 177 0.0 1.7 0.00 0.00 0.00 63 1014.7